Voltar ao catálogo

CZ-6A DEB

AtivoPO
NORAD 60970·DEBRIS·🇨🇳 China

Lançado Aug 6, 2024 de Taiyuan Satellite Launch Center

Loading…

Próximas Passagens (próximas 24 horas)

TLE

AtualizadoSource: Space-Track

Época: Sep 14, 2026, 07:48 UTC

1 60970U 24140LV  26257.32536942  .00000519  00000-0  24197-3 0  9990
2 60970  88.9928 264.6896 0054962 247.2980 112.2394 14.18309294107693

Acompanhe CZ-6A DEB em tempo real com AllMySat

Download on the App Store